Terminal Aerodrome Forecast
Issued by NWS

Home | Current Version | Previous Version | Text Only | Print | Product List | Glossary Off
Versions: 1 2 3 4 5 6 7 8 9 10 11 12 13 14 15 16 17 18 19 20 21 22 23 24 25 26 27 28 29

000
FTUS45 KGGW 230800 AAA
TAFOLF
TAF AMD
KOLF 230852Z 2309/2406 06018KT P6SM RA OVC008
     FM231000 06022KT 5SM -RA BR OVC015
     FM231500 06020G30KT 5SM RA BR OVC007
     FM240100 04020KT 2SM RA BR OVC012=

USA.gov is the U.S. government's official web portal to all federal, state and local government web resources and services.